Regional Weather Roundup
Issued by NWS

Home | Current Version | Previous Version | Graphics & Text | Print | Product List | Glossary On
Versions: 1 2 3 4 5 6 7 8 9 10 11 12 13 14 15 16 17 18 19 20 21 22 23 24 25 26 27 28 29 30 31 32 33 34 35 36 37 38 39 40 41 42 43 44 45 46 47 48 49 50
000
ASUS44 KMEG 281010
RWRTN
TENNESSEE HOURLY STATE WEATHER ROUNDUP
NATIONAL WEATHER SERVICE MEMPHIS TN
500 AM CDT SAT MAR 28 2015

TNZ002-004-019-021-049-052-054-088>092-281100-
WEST TENNESSEE

CITY           SKY/WX    TMP DP  RH WIND       PRES   REMARKS
MEMPHIS INTL   CLOUDY    38  20  48 E6        30.19S WCI  33
NWS MEMPHIS      N/A     33 N/A N/A MISG        N/A
JACKSON        CLOUDY    31  25  78 CALM      30.19R
DYERSBURG      CLOUDY    34  16  47 CALM      30.21S
UNION CITY     CLEAR     27  25  93 CALM      30.18S
PARIS          CLEAR     19  18  93 CALM      30.18S
LEXINGTON      PTCLDY    25  21  86 CALM      30.17R
SAVANNAH       PTCLDY    28  25  86 CALM      30.18S
$$

TNZ008-025-027-028-033-062-065-066-281100-
NORTH MIDDLE TENNESSEE

CITY           SKY/WX    TMP DP  RH WIND       PRES   REMARKS
NASHVILLE      CLEAR     29  19  66 N5        30.17R WCI  24
CLARKSVILLE    CLEAR     26  18  71 N5        30.18S WCI  20
SMYRNA         CLEAR     29  19  66 N7        30.18R WCI  22
COOKEVILLE     CLEAR     28  21  74 CALM      30.11R
CROSSVILLE     CLOUDY    27  20  75 NW8       30.06R WCI  19
$$

TNZ061-075-076-078-094-096-097-281100-
SOUTH MIDDLE TENNESSEE

CITY           SKY/WX    TMP DP  RH WIND       PRES   REMARKS
FAYETTEVILLE   CLEAR     27  19  74 N3        30.12S
TULLAHOMA      CLEAR     27  16  63 N6        30.12S WCI  20
WINCHESTER     CLEAR     28  18  64 N8        30.12F WCI  20
MCMINNVILLE    PTCLDY    28  16  59 N8        30.11S WCI  20
COLUMBIA       CLEAR     28  27  93 CALM      30.15R
SHELBYVILLE    CLEAR     28  21  74 CALM      30.14F
$$

TNZ017-018-042-046-047-281100-
NORTHEAST TENNESSEE

CITY           SKY/WX    TMP DP  RH WIND       PRES   REMARKS
TRI CITIES     CLOUDY    29  16  58 NW9       30.01R WCI  20
ELIZABETHTON   LGT RAIN  27  16  63 VRB7      29.99R WCI  19
$$

TNZ012-013-036-069-073-074-281100-
CENTRAL EAST TENNESSEE

CITY           SKY/WX    TMP DP  RH WIND       PRES   REMARKS
KNOXVILLE      CLOUDY    33  21  61 N8        30.07R WCI  26
OAK RIDGE      CLOUDY    34  21  59 VRB3      30.09R
GATLINBURG     PTSUNNY   30  16  55 N6        30.07R WCI  24
MORRISTOWN     CLOUDY    30  18  59 N7        30.05R WCI  23
$$

TNZ083-085-099-281100-
SOUTHEAST TENNESSEE

CITY           SKY/WX    TMP DP  RH WIND       PRES   REMARKS
CHATTANOOGA    PTCLDY    34  16  47 N9        30.12R WCI  27
$$

SKY/WX REPORTED AS FAIR MEANS FEW OR NO CLOUDS BELOW
12 THOUSAND FEET.



USA.gov is the U.S. government's official web portal to all federal, state and local government web resources and services.